Total_Precipitation_Accumulation
0.01 0.03 0.06 0.07 0.05 0.04 0.03 0.02 0.01 0.02 0.04 0.05 0.03 0.03 0.02 0.03 0.03 0.03 0.03 0.04 0.03 0.04 0.05 0.06 0.07 0.08 0.07 0.07 0.11 0.12 0.10 0.08 0.05 0.04 0.06 0.07 0.03 0.01 0.01 0.03 0.04 0.10 0.04
0.02 0.03 0.05 0.05 0.04 0.04 0.03 0.02 0.01 0.02 0.03 0.04 0.02 0.01 0.01 0.01 0.01 0.01 0.02 0.03 0.04 0.04 0.04 0.04 0.05 0.06 0.06 0.10 0.19 0.19 0.14 0.10 0.05 0.03 0.03 0.04 0.03 0.01 0.01 0.02 0.03 0.07 0.05
0.01 0.02 0.03 0.04 0.04 0.04 0.03 0.02 0.02 0.02 0.02 0.02 0.01 0.01 0.01 0.01 0.01 0.02 0.03 0.06 0.09 0.10 0.07 0.05 0.07 0.09 0.13 0.19 0.19 0.19 0.19 0.13 0.06 0.03 0.02 0.10 0.13 0.04 0.01 0.01 0.01 0.01 0.00
0.00 0.01 0.02 0.03 0.04 0.04 0.03 0.02 0.02 0.02 0.02 0.02 0.01 0.01 0.01 0.01 0.02 0.02 0.04 0.09 0.13 0.18 0.22 0.19 0.15 0.16 0.22 0.24 0.18 0.17 0.23 0.20 0.10 0.04 0.02 0.12 0.26 0.20 0.06 0.02 0.00 0.00 0.00
0.00 0.00 0.01 0.03 0.04 0.04 0.03 0.03 0.02 0.02 0.02 0.02 0.02 0.02 0.02 0.02 0.02 0.03 0.04 0.08 0.13 0.18 0.22 0.24 0.21 0.22 0.23 0.21 0.16 0.17 0.30 0.32 0.18 0.03 0.04 0.07 0.20 0.37 0.11 0.03 0.02 0.01 0.00
0.00 0.00 0.01 0.03 0.04 0.04 0.04 0.04 0.03 0.03 0.03 0.03 0.03 0.04 0.04 0.04 0.03 0.04 0.04 0.05 0.07 0.10 0.16 0.19 0.19 0.21 0.25 0.24 0.20 0.24 0.38 0.45 0.22 0.08 0.09 0.11 0.20 0.34 0.16 0.05 0.02 0.01 0.00
0.00 0.00 0.00 0.02 0.03 0.04 0.05 0.05 0.05 0.05 0.05 0.05 0.05 0.06 0.06 0.06 0.05 0.06 0.06 0.06 0.04 0.04 0.08 0.14 0.18 0.21 0.26 0.27 0.27 0.35 0.47 0.45 0.22 0.23 0.15 0.12 0.22 0.32 0.25 0.12 0.04 0.01 0.00
0.00 0.00 0.01 0.01 0.02 0.03 0.04 0.06 0.07 0.08 0.08 0.08 0.08 0.08 0.08 0.08 0.09 0.10 0.10 0.09 0.06 0.05 0.05 0.07 0.12 0.17 0.21 0.22 0.29 0.41 0.46 0.30 0.11 0.09 0.08 0.09 0.19 0.33 0.43 0.29 0.13 0.03 0.01
0.00 0.00 0.00 0.00 0.01 0.01 0.03 0.06 0.08 0.09 0.09 0.08 0.08 0.08 0.06 0.06 0.08 0.11 0.13 0.11 0.09 0.08 0.07 0.06 0.07 0.09 0.12 0.16 0.22 0.25 0.24 0.15 0.07 0.13 0.09 0.13 0.19 0.39 0.59 0.47 0.26 0.10 0.03
0.00 0.00 0.00 0.00 0.00 0.00 0.01 0.04 0.07 0.09 0.09 0.08 0.08 0.07 0.05 0.05 0.06 0.08 0.08 0.08 0.08 0.10 0.09 0.07 0.07 0.07 0.07 0.08 0.11 0.13 0.10 0.09 0.05 0.12 0.18 0.18 0.16 0.37 0.62 0.56 0.39 0.19 0.08
0.00 0.00 0.00 0.00 0.00 0.00 0.00 0.02 0.05 0.07 0.07 0.06 0.06 0.06 0.06 0.04 0.03 0.04 0.04 0.04 0.06 0.08 0.08 0.08 0.08 0.07 0.06 0.04 0.04 0.06 0.04 0.03 0.08 0.16 0.19 0.15 0.16 0.34 0.57 0.57 0.46 0.32 0.18
0.00 0.00 0.00 0.00 0.00 0.00 0.00 0.01 0.03 0.04 0.05 0.05 0.05 0.06 0.07 0.06 0.05 0.05 0.05 0.05 0.07 0.07 0.07 0.10 0.10 0.07 0.06 0.06 0.08 0.08 0.03 0.02 0.07 0.09 0.10 0.09 0.17 0.31 0.49 0.54 0.50 0.41 0.31
0.00 0.00 0.00 0.00 0.00 0.00 0.00 0.01 0.01 0.02 0.05 0.07 0.08 0.10 0.15 0.16 0.13 0.12 0.13 0.13 0.10 0.09 0.13 0.16 0.17 0.15 0.17 0.19 0.21 0.16 0.09 0.06 0.05 0.04 0.04 0.05 0.09 0.21 0.38 0.49 0.54 0.49 0.43
0.00 0.00 0.00 0.00 0.00 0.00 0.00 0.01 0.01 0.01 0.03 0.07 0.09 0.12 0.15 0.18 0.18 0.18 0.18 0.18 0.16 0.15 0.17 0.22 0.24 0.22 0.21 0.20 0.23 0.21 0.19 0.15 0.08 0.06 0.04 0.04 0.04 0.07 0.16 0.30 0.44 0.50 0.49
0.00 0.00 0.00 0.00 0.00 0.00 0.00 0.00 0.00 0.01 0.02 0.03 0.04 0.06 0.07 0.09 0.12 0.12 0.11 0.10 0.11 0.12 0.13 0.15 0.17 0.19 0.20 0.19 0.19 0.21 0.23 0.21 0.16 0.12 0.09 0.07 0.03 0.03 0.06 0.12 0.24 0.41 0.50
0.00 0.00 0.00 0.00 0.00 0.00 0.00 0.00 0.00 0.00 0.00 0.01 0.01 0.02 0.02 0.03 0.03 0.03 0.03 0.02 0.02 0.03 0.04 0.04 0.05 0.06 0.08 0.13 0.14 0.14 0.15 0.17 0.20 0.20 0.18 0.15 0.07 0.04 0.05 0.10 0.15 0.25 0.38
0.00 0.00 0.00 0.00 0.00 0.00 0.00 0.00 0.00 0.00 0.00 0.00 0.00 0.00 0.00 0.00 0.00 0.00 0.01 0.01 0.00 0.01 0.01 0.01 0.01 0.02 0.03 0.07 0.10 0.12 0.10 0.11 0.16 0.21 0.22 0.19 0.14 0.09 0.07 0.09 0.14 0.19 0.28
0.00 0.00 0.00 0.00 0.00 0.00 0.00 0.00 0.00 0.00 0.00 0.00 0.00 0.00 0.00 0.00 0.00 0.00 0.01 0.01 0.01 0.01 0.01 0.02 0.02 0.03 0.05 0.06 0.10 0.14 0.13 0.12 0.14 0.20 0.25 0.22 0.18 0.14 0.10 0.09 0.14 0.23 0.29
0.00 0.00 0.00 0.00 0.00 0.00 0.00 0.00 0.00 0.00 0.00 0.00 0.00 0.00 0.00 0.00 0.00 0.00 0.01 0.01 0.02 0.03 0.03 0.03 0.03 0.05 0.08 0.09 0.13 0.16 0.19 0.17 0.16 0.19 0.24 0.28 0.26 0.19 0.16 0.10 0.10 0.19 0.31
0.00 0.00 0.00 0.00 0.00 0.00 0.00 0.00 0.00 0.00 0.00 0.00 0.00 0.00 0.00 0.00 0.00 0.00 0.01 0.01 0.01 0.02 0.03 0.04 0.05 0.07 0.09 0.11 0.13 0.14 0.19 0.24 0.24 0.23 0.29 0.39 0.38 0.28 0.21 0.15 0.09 0.09 0.15
0.00 0.00 0.00 0.00 0.00 0.00 0.00 0.00 0.00 0.00 0.00 0.00 0.00 0.00 0.00 0.00 0.00 0.01 0.01 0.01 0.01 0.02 0.03 0.03 0.04 0.05 0.05 0.07 0.10 0.11 0.14 0.17 0.18 0.19 0.24 0.37 0.50 0.50 0.41 0.33 0.22 0.14 0.12
0.00 0.00 0.00 0.00 0.00 0.00 0.00 0.00 0.00 0.00 0.00 0.00 0.00 0.00 0.00 0.00 0.00 0.00 0.00 0.00 0.01 0.01 0.01 0.01 0.02 0.02 0.02 0.02 0.04 0.07 0.06 0.08 0.13 0.13 0.13 0.21 0.33 0.40 0.42 0.42 0.38 0.28 0.19
0.00 0.00 0.00 0.00 0.00 0.00 0.00 0.00 0.00 0.00 0.00 0.00 0.00 0.00 0.00 0.00 0.00 0.00 0.00 0.00 0.00 0.00 0.01 0.01 0.01 0.02 0.02 0.02 0.04 0.07 0.06 0.04 0.07 0.06 0.08 0.13 0.16 0.19 0.23 0.27 0.31 0.30 0.27
0.00 0.00 0.00 0.00 0.00 0.00 0.00 0.00 0.00 0.00 0.00 0.00 0.00 0.00 0.00 0.00 0.00 0.00 0.00 0.00 0.01 0.01 0.01 0.01 0.01 0.02 0.03 0.03 0.03 0.04 0.04 0.03 0.04 0.03 0.02 0.03 0.03 0.04 0.06 0.09 0.15 0.19 0.22
0.00 0.00 0.00 0.00 0.00 0.00 0.00 0.00 0.00 0.00 0.00 0.00 0.00 0.00 0.00 0.00 0.00 0.00 0.00 0.01 0.01 0.01 0.02 0.02 0.02 0.03 0.04 0.05 0.05 0.05 0.05 0.04 0.03 0.04 0.02 0.02 0.03 0.03 0.04 0.04 0.05 0.08 0.11
0.00 0.00 0.00 0.00 0.00 0.00 0.00 0.00 0.00 0.00 0.00 0.00 0.00 0.00 0.00 0.01 0.01 0.00 0.01 0.01 0.01 0.02 0.02 0.03 0.04 0.05 0.05 0.06 0.07 0.06 0.06 0.06 0.05 0.05 0.04 0.02 0.02 0.03 0.03 0.04 0.03 0.04 0.06